Change the Weather History Date:

Tuesday, September 6, 2011

  Actual Average Record
Temperature  
Mean Temperature 68 °F 60 °F  
Max Temperature 91 °F 79 °F 98 °F (1998)
Min Temperature 45 °F 41 °F 26 °F (2010)
Degree Days  
Heating Degree Days 0 6  
Month to date heating degree days 28 32  
Since 1 July heating degree days 168 181  
Cooling Degree Days 3 1  
Month to date cooling degree days 7 6  
Year to date cooling degree days 110 212  
Growing Degree Days 18 (Base 50)    
Moisture  
Dew Point 37 °F    
Average Humidity 43    
Maximum Humidity 71    
Minimum Humidity 15    
Precipitation  
Precipitation 0.00 in 0.01 in 0.04 in (1971)
Month to date precipitation T 0.08  
Year to date precipitation 5.37 5.81  
Sea Level Pressure  
Sea Level Pressure 30.09 in    
Wind  
Wind Speed 6 mph (West)    
Max Wind Speed 16 mph    
Max Gust Speed 20 mph    
Visibility 10 miles    
Events      
T = Trace of Precipitation, MM = Missing Value Source: NWS Daily Summary

Daily Weather History Graph

Daily Weather History Graph

Search for Another Location

Airport or City:

Trip Planner

Search our weather history database for the weather conditions in past years. The results will help you decide how hot, cold, wet, or windy it might be!

Date:

Astronomy

Sep. 06, 2011 Rise Set
Actual Time 6:33 AM PDT 7:32 PM PDT
Civil Twilight 6:03 AM PDT 8:01 PM PDT
Nautical Twilight 5:28 AM PDT 8:36 PM PDT
Astronomical Twilight 4:51 AM PDT 9:13 PM PDT
Moon 4:20 PM PDT (9/6) 12:42 AM PDT (9/6)
Length of Visible Light 13h 58m
Length of Day
12h 58m
Waxing Gibbous, 71% of the Moon is Illuminated
Sep 6
Waxing Gibbous
Sep 12
Full
Sep 20
Last Quarter
Sep 27
New
Oct 3
First Quarter

Hourly Weather History & Observations

Time (PDT) Temp. Windchill Dew Point Humidity Pressure Visibility Wind Dir Wind Speed Gust Speed Precip Events Conditions
12:56 AM 51.1 °F - 37.0 °F 59% 30.03 in 10.0 mi South 3.5 mph - N/A   Clear
1:56 AM 52.0 °F - 37.9 °F 59% 30.04 in 10.0 mi SSE 5.8 mph - N/A   Clear
2:56 AM 52.0 °F - 39.9 °F 63% 30.05 in 10.0 mi South 3.5 mph - N/A   Clear
3:56 AM 50.0 °F - 41.0 °F 71% 30.07 in 10.0 mi SSE 4.6 mph - N/A   Clear
4:56 AM 48.2 °F - 39.2 °F 71% 30.14 in 10.0 mi South 3.5 mph - N/A   Clear
5:56 AM 46.9 °F - 37.9 °F 71% 30.09 in 10.0 mi Calm Calm - N/A   Clear
6:56 AM 46.4 °F 44.3 °F 37.4 °F 71% 30.16 in 10.0 mi SSE 4.6 mph - N/A   Clear
7:56 AM 55.0 °F - 39.9 °F 57% 30.12 in 10.0 mi SSE 5.8 mph - N/A   Clear
8:56 AM 63.0 °F - 39.9 °F 43% 30.12 in 10.0 mi Calm Calm - N/A   Clear
9:56 AM 71.1 °F - 37.9 °F 30% 30.12 in 9.0 mi Calm Calm - N/A   Clear
10:56 AM 75.9 °F - 34.0 °F 22% 30.13 in 10.0 mi Variable 3.5 mph - N/A   Clear
11:56 AM 80.1 °F - 34.0 °F 19% 30.12 in 10.0 mi NW 5.8 mph - N/A   Clear
12:56 PM 82.9 °F - 34.0 °F 17% 30.10 in 10.0 mi Calm Calm - N/A   Clear
1:56 PM 87.1 °F - 36.0 °F 16% 30.08 in 10.0 mi NNW 4.6 mph - N/A   Clear
2:56 PM 89.1 °F - 35.1 °F 15% 30.06 in 10.0 mi NW 10.4 mph - N/A   Clear
3:56 PM 90.0 °F - 36.0 °F 15% 30.04 in 10.0 mi NNW 13.8 mph - N/A   Clear
4:56 PM 89.1 °F - 35.1 °F 15% 30.04 in 10.0 mi NNW 11.5 mph - N/A   Clear
5:56 PM 87.1 °F - 35.1 °F 16% 30.04 in 10.0 mi NNW 11.5 mph - N/A   Clear
6:56 PM 82.9 °F - 36.0 °F 19% 30.06 in 10.0 mi North 10.4 mph - N/A   Clear
7:56 PM 77.0 °F - 37.0 °F 24% 30.06 in 10.0 mi NNW 9.2 mph - N/A   Clear
8:56 PM 73.0 °F - 37.0 °F 27% 30.08 in 10.0 mi NW 6.9 mph - N/A   Clear
9:56 PM 70.0 °F - 37.0 °F 30% 30.09 in 10.0 mi WNW 6.9 mph - N/A   Clear
10:56 PM 68.0 °F - 37.0 °F 32% 30.10 in 10.0 mi West 4.6 mph - N/A   Clear
11:56 PM 64.0 °F - 36.0 °F 35% 30.10 in 10.0 mi West 5.8 mph - N/A   Clear